[[[{"header":{"parameterUnit":"kt","parameterCategory":2,"dx":1,"dy":1,"la1":30.253999710083008,"la2":30.299108505249023,"lo1":-89.0895004272461,"lo2":-89.04439544677734,"nx":28,"ny":28,"refTime":"2022-09-24T21:00:00:Z","depth":0,"parameterNumber":1,"parameterNumberName":"U-component_of_WINDS"},"data":[-1.8346,-1.8349,-1.8271,-1.8239,-1.8162,-1.8127,-1.8089,-1.8031,-1.7964,-1.7912,-1.7868,-1.7787,-1.7689,-1.7616,-1.7564,-1.7529,-1.7515,-1.7575,-1.7525,-1.7326,-1.7294,-1.7263,-1.7259,-1.7571,-1.7572,-1.7743,-1.7745,-1.7746,-1.8213,-1.8138,-1.8096,-1.8003,-1.7967,-1.7862,-1.7778,-1.7756,-1.7727,-1.7643,-1.7594,-1.7541,-1.7488,-1.7365,-1.7301,-1.7301,-1.7249,-1.729,-1.7292,-1.7279,-1.7062,-1.7059,-1.7334,-1.7334,-1.7334,-1.7334,-1.7334,-1.7334,-1.795,-1.7954,-1.7851,-1.7805,-1.7735,-1.7673,-1.7663,-1.7563,-1.7521,-1.7444,-1.7354,-1.7319,-1.722,-1.71,-1.704,-1.701,-1.695,-1.697,-1.6976,-1.6985,-1.7008,-1.6781,-1.6994,-1.6993,-1.6992,-1.6991,-1.699,0,-1.7734,-1.7667,-1.7621,-1.7552,-1.7513,-1.7451,-1.738,-1.7371,-1.7199,-1.7171,-1.7124,-1.7083,-1.7001,-1.6948,-1.6867,-1.6798,-1.6688,-1.6665,-1.668,-1.6728,-1.6781,-1.6759,-1.6416,-1.6661,-1.6657,-1.6655,-1.6653,-1.6652,-1.7468,-1.748,-1.7331,-1.731,-1.725,-1.7217,-1.718,-1.7027,-1.6995,-1.6885,-1.6895,-1.6838,-1.6785,-1.6721,-1.6603,-1.6541,-1.6487,-1.6591,-1.6477,-1.6522,-1.6495,-1.6499,-1.6502,-1.6618,-1.6623,-1.6626,-1.6629,0,-1.7327,-1.7194,-1.7186,-1.7036,-1.6998,-1.7019,-1.689,-1.6887,-1.6788,-1.677,-1.6756,-1.6603,-1.6558,-1.6421,-1.634,-1.6271,-1.6307,-1.6252,-1.6342,-1.6326,-1.6409,-1.6406,-1.669,-1.6721,-1.6389,-1.6392,-1.6395,0,-1.705,-1.7071,-1.6872,-1.6875,-1.6893,-1.6737,-1.676,-1.6677,-1.6587,-1.6571,-1.642,-1.6408,-1.6233,-1.6202,-1.6098,-1.6102,-1.6084,-1.6033,-1.6007,-1.6051,-1.6058,-1.6035,-1.6023,-1.5938,-1.5937,-1.5936,-1.5935,0,-1.6848,-1.6762,-1.6765,-1.6724,-1.6565,-1.657,-1.6503,-1.64,-1.6365,-1.6296,-1.6272,-1.6203,-1.6167,-1.6116,-1.5985,-1.5914,-1.5984,-1.5858,-1.5932,-1.5936,-1.5959,-1.5961,-1.6242,-1.5933,-1.5933,-1.5932,-1.5932,0,-1.6605,-1.6539,-1.656,-1.6425,-1.6409,-1.6409,-1.6331,-1.6299,-1.6201,-1.6135,-1.608,-1.5964,-1.5951,-1.5838,-1.582,-1.5766,-1.5739,-1.5686,-1.5689,-1.5684,-1.5564,-1.5748,-1.6025,-1.6052,-1.5675,-1.5672,-1.567,0,-1.6413,-1.6397,-1.6264,-1.6286,-1.6261,-1.6094,-1.6091,-1.6008,-1.592,-1.5885,-1.5786,-1.5747,-1.5633,-1.5602,-1.561,-1.5509,-1.5579,-1.5494,-1.5451,-1.5451,-1.5489,-1.574,-1.5819,-1.5978,-1.5641,-1.5644,-1.5646,0,-1.6248,-1.6052,-1.6066,-1.6013,-1.5877,-1.5853,-1.5849,-1.5775,-1.576,-1.568,-1.5675,-1.5613,-1.5526,-1.5475,-1.5372,-1.5389,-1.5527,-1.5293,-1.5288,-1.5345,-1.5612,-1.5688,-1.5715,-1.5454,-1.5457,-1.546,-1.5622,0,-1.5922,-1.5894,-1.5922,-1.581,-1.5769,-1.5773,-1.5626,-1.5602,-1.5508,-1.5415,-1.5401,-1.5294,-1.5219,-1.521,-1.5117,-1.5196,-1.5163,-1.5069,-1.4953,-1.5117,-1.5168,-1.5188,-1.4891,-1.4886,-1.4883,-1.488,0,0,-1.5774,-1.5732,-1.5583,-1.5573,-1.553,-1.5356,-1.5375,-1.5312,-1.519,-1.5164,-1.5097,-1.4997,-1.4913,-1.4912,-1.4951,-1.4919,-1.4921,-1.4869,-1.5039,-1.5057,-1.5074,-1.5131,-1.5153,-1.4873,-1.4872,-1.4871,-1.4869,0,-1.5625,-1.5542,-1.5561,-1.5489,-1.5377,-1.5277,-1.5282,-1.514,-1.5081,-1.5064,-1.4923,-1.4896,-1.4818,-1.475,-1.4705,-1.4863,-1.476,-1.485,-1.4988,-1.5007,-1.5031,-1.5051,-1.5112,-1.5135,-1.486,-1.4861,-1.4861,0,-1.544,-1.5336,-1.5328,-1.5219,-1.5144,-1.512,-1.4961,-1.4941,-1.4921,-1.4732,-1.4719,-1.464,-1.4534,-1.455,-1.4551,-1.4491,-1.4622,-1.4552,-1.4571,-1.4569,-1.4581,-1.4609,-1.4634,-1.4305,-1.4304,-1.4303,0,0,-1.5333,-1.5305,-1.5144,-1.5176,-1.5139,-1.4989,-1.496,-1.4863,-1.4771,-1.4735,-1.4632,-1.4548,-1.45,-1.4473,-1.4421,-1.4458,-1.4426,-1.449,-1.4516,-1.4538,-1.4549,-1.4566,-1.4594,-1.4298,-1.4298,-1.4298,0,0,-1.5281,-1.5096,-1.5017,-1.5035,-1.4953,-1.4797,-1.4823,-1.4722,-1.466,-1.4643,-1.4478,-1.4448,-1.4459,-1.4387,-1.4338,-1.4378,-1.4264,-1.4273,-1.4426,-1.4456,-1.4482,-1.4501,-1.4161,0,0,0,0,0,-1.5053,-1.5118,-1.5049,-1.503,-1.489,-1.4836,-1.4817,-1.4682,-1.4606,-1.4629,-1.4527,-1.4415,-1.4327,-1.4279,-1.4263,-1.4321,-1.4234,-1.4245,-1.4256,-1.446,-1.4494,-1.4523,0,0,0,0,0,0,-1.5045,-1.5022,-1.5046,-1.4896,-1.4863,-1.4832,-1.4674,-1.4639,-1.46,-1.4579,-1.4438,-1.441,-1.4294,-1.4278,-1.4266,-1.4323,-1.4165,-1.4239,-1.4248,-1.4257,-1.4472,-1.45,-1.4524,0,0,0,0,0,-1.5037,-1.5019,-1.483,-1.4894,-1.4865,-1.4701,-1.467,-1.464,-1.4607,-1.4448,-1.4416,-1.4509,-1.4299,-1.4279,-1.427,-1.4333,-1.4173,-1.4169,-1.4245,-1.4252,-1.4259,-1.4486,0,0,0,0,0,0,-1.5031,-1.499,-1.4821,-1.4807,-1.4859,-1.47,-1.4671,-1.4641,-1.4475,-1.4445,-1.451,-1.4496,-1.4304,-1.4287,-1.4273,-1.4344,-1.4179,-1.4175,-1.4172,-1.4251,-1.4256,-1.4262,0,0,0,0,0,0,-1.4999,-1.498,-1.4814,-1.4777,-1.4758,-1.47,-1.4674,-1.4645,-1.4476,-1.4546,-1.4529,-1.4506,-1.4326,-1.4294,-1.4282,-1.4242,-1.4184,-1.418,-1.4177,-1.4175,-1.4255,-1.426,0,0,0,0,0,0,-1.4988,-1.4972,-1.478,-1.4765,-1.4748,-1.4584,-1.4672,-1.4536,-1.4445,-1.4557,-1.4433,-1.4428,-1.4335,-1.432,-1.4289,-1.4255,-1.4246,-1.4184,-1.4181,-1.4179,-1.4178,0,0,0,0,0,0,0,-1.498,-1.5123,-1.4903,-1.4755,-1.474,-1.468,-1.4677,-1.4673,-1.4444,-1.4439,-1.4434,-1.443,-1.4208,-1.4203,-1.4199,-1.4266,0,0,-1.4184,-1.4182,0,0,0,0,0,0,0,0,-1.5127,-1.5124,-1.4902,-1.4899,-1.4897,-1.468,-1.4677,-1.4674,-1.4443,-1.4439,-1.4435,-1.4432,-1.4206,-1.4203,-1.4199,0,0,0,0,0,0,0,0,0,0,0,0,0,0,0,-1.4902,-1.4899,0,-1.4679,-1.4677,-1.4674,-1.4443,-1.4439,-1.4436,-1.4433,-1.4205,-1.4202,-1.4199,0,0,0,0,0,0,0,0,0,0,0,0,0,0,0,0,0,0,0,0,0,0,0,0,0,0,0,0,0,0,0,0,0,0,0,0,0,0,0,0,0,0,0,0,0,0,0,0,0,0,0,0,0,0,0,0,0,0,0,0,0,0,0,0,0,0,0,0,0]}],[{"header":{"parameterUnit":"kt","parameterCategory":2,"dx":1,"dy":1,"la1":30.253999710083008,"la2":30.299108505249023,"lo1":-89.0895004272461,"lo2":-89.04439544677734,"nx":28,"ny":28,"refTime":"2022-09-24T21:00:00:Z","depth":0,"parameterNumber":2,"parameterNumberName":"V-component_of_WINDS"},"data":[0.6267,0.6295,0.6279,0.6304,0.6294,0.6308,0.6308,0.6306,0.63,0.6315,0.6321,0.6309,0.6297,0.63,0.6305,0.6299,0.63,0.6321,0.6309,0.6234,0.6222,0.6211,0.6201,0.6322,0.6323,0.6388,0.6388,0.6389,0.6207,0.6197,0.6207,0.6205,0.6213,0.6183,0.618,0.6187,0.6201,0.6196,0.6202,0.6214,0.6222,0.6204,0.6208,0.622,0.6205,0.6222,0.6218,0.6216,0.6136,0.6126,0.6233,0.6233,0.6233,0.6233,0.6233,0.6233,0.6093,0.6112,0.6101,0.6112,0.6107,0.6107,0.6122,0.6106,0.6116,0.6119,0.6101,0.6116,0.6108,0.6108,0.6104,0.6115,0.6094,0.6107,0.6109,0.6111,0.6114,0.6013,0.6116,0.6116,0.6116,0.6115,0.6115,0,0.6003,0.5988,0.5998,0.6002,0.6009,0.6011,0.6011,0.602,0.5986,0.5996,0.6008,0.6013,0.6022,0.6032,0.6034,0.6028,0.5996,0.5994,0.6002,0.6007,0.6011,0.6003,0.5869,0.599,0.5989,0.5988,0.5988,0.5987,0.5882,0.5908,0.5892,0.59,0.5896,0.5912,0.5917,0.5885,0.5892,0.5888,0.5906,0.5917,0.5923,0.5947,0.5929,0.5936,0.592,0.5967,0.5921,0.5926,0.5914,0.5911,0.5911,0.5975,0.5977,0.5978,0.5979,0,0.5814,0.5789,0.5825,0.5807,0.5803,0.5832,0.5816,0.5835,0.5819,0.5842,0.5845,0.582,0.5833,0.5808,0.582,0.5806,0.5848,0.5836,0.5849,0.5843,0.5878,0.5873,0.6009,0.6022,0.5903,0.5904,0.5905,0,0.5698,0.5735,0.5695,0.5718,0.5757,0.5723,0.5762,0.5752,0.5746,0.5764,0.5726,0.5744,0.5709,0.5723,0.5703,0.5734,0.5738,0.5727,0.572,0.5728,0.5728,0.5728,0.572,0.5712,0.5711,0.5711,0.571,0,0.559,0.5615,0.5652,0.5653,0.5639,0.5657,0.5652,0.5645,0.5652,0.5657,0.566,0.5671,0.5675,0.5682,0.5655,0.5624,0.5695,0.5646,0.5683,0.5683,0.5696,0.5695,0.5825,0.5709,0.5709,0.5709,0.5709,0,0.5492,0.5498,0.5558,0.5542,0.555,0.5577,0.5582,0.5599,0.5595,0.5583,0.5588,0.5558,0.5588,0.5541,0.5579,0.5545,0.5551,0.5545,0.5547,0.5544,0.549,0.556,0.5692,0.5701,0.5545,0.5544,0.5543,0,0.5371,0.5426,0.5397,0.5456,0.5477,0.543,0.5458,0.5457,0.5444,0.5459,0.5445,0.5465,0.5425,0.5427,0.545,0.5435,0.548,0.543,0.5447,0.5448,0.5443,0.5565,0.5588,0.5667,0.5525,0.5527,0.5529,0,0.5274,0.5257,0.527,0.5268,0.5262,0.5282,0.5316,0.5327,0.5338,0.5344,0.5368,0.5399,0.5367,0.5373,0.5351,0.5376,0.5449,0.534,0.5339,0.5356,0.5517,0.5537,0.5551,0.5428,0.543,0.5432,0.5515,0,0.5119,0.5146,0.5181,0.5185,0.5196,0.5234,0.5206,0.5222,0.5198,0.5183,0.5223,0.5219,0.5232,0.5243,0.5222,0.529,0.5273,0.5241,0.519,0.5273,0.5298,0.531,0.5153,0.5151,0.515,0.5149,0,0,0.5007,0.5045,0.5014,0.5046,0.5052,0.5004,0.5045,0.5048,0.5053,0.5058,0.5031,0.5071,0.5069,0.512,0.5144,0.5152,0.516,0.5133,0.5235,0.5245,0.5254,0.5282,0.5294,0.5147,0.5146,0.5146,0.5145,0,0.4943,0.4944,0.4987,0.4987,0.4986,0.4969,0.498,0.4971,0.4963,0.5005,0.4963,0.4984,0.5021,0.5021,0.5026,0.5127,0.5093,0.5135,0.5195,0.5222,0.5234,0.5244,0.5274,0.5287,0.5142,0.5142,0.5142,0,0.4839,0.4832,0.4851,0.4868,0.4868,0.4893,0.4833,0.4865,0.4883,0.4829,0.487,0.4864,0.4865,0.4919,0.4943,0.4918,0.5034,0.4996,0.5004,0.5004,0.503,0.5044,0.5056,0.4891,0.4891,0.489,0,0,0.4787,0.4813,0.4797,0.4853,0.4855,0.4831,0.4844,0.4821,0.4823,0.4824,0.4815,0.4818,0.4838,0.4852,0.487,0.4935,0.493,0.4966,0.4978,0.4987,0.4994,0.5022,0.5036,0.4887,0.4887,0.4887,0,0,0.4763,0.4745,0.4721,0.4783,0.4785,0.4773,0.4807,0.4777,0.4791,0.4783,0.4748,0.4748,0.4799,0.4795,0.4759,0.485,0.4801,0.4809,0.485,0.4865,0.4876,0.4874,0.4695,0,0,0,0,0,0.4683,0.4746,0.4725,0.4731,0.4755,0.4785,0.4787,0.4759,0.4723,0.475,0.4738,0.4703,0.4767,0.4734,0.4741,0.4781,0.4849,0.4856,0.4862,0.4929,0.4945,0.4958,0,0,0,0,0,0,0.4686,0.4694,0.4723,0.4714,0.4718,0.4782,0.4714,0.4708,0.4719,0.4711,0.4707,0.4703,0.468,0.4728,0.4735,0.4774,0.4693,0.4851,0.4857,0.4862,0.4935,0.4947,0.4958,0,0,0,0,0,0.4687,0.4694,0.4739,0.4712,0.4717,0.4694,0.4712,0.4706,0.4714,0.4696,0.4691,0.4691,0.4682,0.4685,0.4732,0.4771,0.4688,0.4691,0.4855,0.486,0.4864,0.4941,0,0,0,0,0,0,0.4689,0.4689,0.4739,0.4739,0.4687,0.4689,0.4689,0.4705,0.4697,0.4693,0.4679,0.4673,0.4684,0.4686,0.4689,0.4772,0.4684,0.4687,0.4688,0.4859,0.4862,0.4865,0,0,0,0,0,0,0.4685,0.4689,0.4739,0.4708,0.4704,0.4686,0.4685,0.4722,0.4698,0.468,0.4675,0.4676,0.4679,0.4687,0.469,0.4748,0.4681,0.4684,0.4685,0.4687,0.4861,0.4864,0,0,0,0,0,0,0.4686,0.469,0.4708,0.4705,0.4702,0.4702,0.4718,0.4743,0.4671,0.4681,0.4663,0.466,0.4682,0.4683,0.469,0.4748,0.4748,0.4681,0.4683,0.4684,0.4685,0,0,0,0,0,0,0,0.4687,0.467,0.4738,0.4702,0.4699,0.4741,0.4741,0.4741,0.467,0.4667,0.4664,0.4661,0.4667,0.4669,0.4672,0.4748,0,0,0.4681,0.4682,0,0,0,0,0,0,0,0,0.4668,0.4669,0.4738,0.4738,0.4738,0.4741,0.4741,0.4741,0.467,0.4667,0.4665,0.4663,0.4667,0.467,0.4672,0,0,0,0,0,0,0,0,0,0,0,0,0,0,0,0.4738,0.4738,0,0.4741,0.4741,0.4741,0.4669,0.4667,0.4665,0.4663,0.4668,0.467,0.4672,0,0,0,0,0,0,0,0,0,0,0,0,0,0,0,0,0,0,0,0,0,0,0,0,0,0,0,0,0,0,0,0,0,0,0,0,0,0,0,0,0,0,0,0,0,0,0,0,0,0,0,0,0,0,0,0,0,0,0,0,0,0,0,0,0,0,0,0,0]}]]]